[Date Prev][Date Next][Thread Prev][Thread Next] - [Date Index][Thread Index][Author Index]

2 Line ISS Keps 7-3



ISS
1 25544U 98067A   02184.15969907  .00021813  00000-0  28528-3 0  6250
2 25544  51.6385 332.7923 0007527 312.1900  43.0437 15.58531054206518


----
Via the sarex mailing list at AMSAT.ORG courtesy of AMSAT-NA.
To unsubscribe, send "unsubscribe sarex" to Majordomo@amsat.org



AMSAT Top AMSAT Home